Location: Winthrop
(48.4780°N, 120.1850°W)
Time: 06:20:32
(UTC-08:00)

Altair - All Passes

Search period start: 27 January 2023 00:00
Search period end: 06 February 2023 00:00
Orbit: 1501 x 1683 km, 47.2° (Epoch: 26 January)

Date Brightness Start Highest point End Pass type
(mag) Time Alt. Az. Time Alt. Az. Time Alt. Az.
27 Jan - 00:01:50 10° W 00:11:55 85° S 00:22:09 10° E night (unlit)
27 Jan - 02:06:40 10° WNW 02:16:41 68° SSW 02:26:41 10° ESE visible
27 Jan - 04:11:51 10° WNW 04:20:23 32° SW 04:28:50 10° SSE visible
27 Jan - 19:31:09 10° S 19:38:41 26° SE 19:46:25 10° E visible
27 Jan - 21:32:25 10° SW 21:42:03 61° SSE 21:51:59 10° ENE visible
27 Jan - 23:36:37 10° W 23:46:41 84° S 23:56:54 10° E night (unlit)
28 Jan - 01:41:27 10° WNW 01:51:29 70° SSW 02:01:32 10° ESE visible
28 Jan - 03:46:33 10° WNW 03:55:17 34° SW 04:03:57 10° SSE visible
28 Jan - 19:06:27 10° S 19:13:38 24° SE 19:20:59 10° E visible
28 Jan - 21:07:20 10° SW 21:16:53 59° SSE 21:26:44 10° ENE visible
28 Jan - 23:11:25 10° W 23:21:26 84° S 23:31:40 10° E visible
29 Jan - 01:16:13 10° W 01:26:16 72° SSW 01:36:21 10° ESE visible
29 Jan - 03:21:15 10° WNW 03:30:11 37° SW 03:39:03 10° SSE visible
29 Jan - 18:41:47 10° S 18:48:35 22° SE 18:55:33 10° E visible
29 Jan - 20:42:17 10° SW 20:51:43 56° SSE 21:01:28 10° ENE visible
29 Jan - 22:46:13 10° W 22:56:12 83° S 23:06:25 10° E visible
30 Jan - 00:51:00 10° W 01:01:03 74° SSW 01:11:11 10° ESE night (unlit)
30 Jan - 02:55:58 10° WNW 03:05:03 39° SW 03:14:07 10° SSE visible
30 Jan - 05:05:09 10° WSW 05:07:35 11° WSW 05:10:01 10° SW visible
30 Jan - 18:17:12 10° S 18:23:33 20° SE 18:30:02 10° E visible
30 Jan - 20:17:14 10° SW 20:26:34 53° SSE 20:36:14 10° ENE visible
30 Jan - 22:21:02 10° WSW 22:30:58 82° S 22:41:11 10° E visible
31 Jan - 00:25:47 10° W 00:35:50 76° SSW 00:46:00 10° ESE night (unlit)
31 Jan - 02:30:42 10° WNW 02:39:56 42° SW 02:49:09 10° SSE visible
31 Jan - 04:38:45 10° W 04:42:34 13° WSW 04:46:23 10° SW visible
31 Jan - 17:52:42 10° SSE 17:58:32 18° SE 18:04:28 10° E visible
31 Jan - 19:52:12 10° SW 20:01:25 50° SSE 20:10:58 10° ENE visible
31 Jan - 21:55:50 10° WSW 22:05:44 81° S 22:15:56 10° E visible
01 Feb - 00:00:34 10° W 00:10:37 78° SSW 00:20:47 10° ESE visible
01 Feb - 02:05:26 10° WNW 02:14:48 45° SW 02:24:09 10° SSE visible
01 Feb - 04:12:47 10° W 04:17:33 14° WSW 04:22:19 10° SSW visible
01 Feb - 17:28:18 10° SSE 17:33:31 16° SE 17:38:49 10° E visible
01 Feb - 19:27:12 10° SW 19:36:17 48° SE 19:45:42 10° ENE visible
01 Feb - 21:30:39 10° WSW 21:40:30 80° SSE 21:50:41 10° E visible
01 Feb - 23:35:22 10° W 23:45:23 79° SSW 23:55:34 10° ESE visible
02 Feb - 01:40:11 10° WNW 01:49:39 47° SW 01:59:08 10° SE night (unlit)
02 Feb - 03:47:01 10° W 03:52:32 16° SW 03:58:02 10° SSW visible
02 Feb - 17:04:02 10° SSE 17:08:31 14° ESE 17:13:03 10° E daylight
02 Feb - 19:02:13 10° SSW 19:11:10 45° SE 19:20:26 10° ENE visible
02 Feb - 21:05:29 10° WSW 21:15:17 78° SSE 21:25:26 10° E visible
02 Feb - 23:10:09 10° W 23:20:09 81° S 23:30:21 10° ESE visible
03 Feb - 01:14:57 10° WNW 01:24:30 50° SSW 01:34:06 10° SE night (unlit)
03 Feb - 03:21:24 10° W 03:27:29 18° SW 03:33:36 10° SSW night (unlit)
03 Feb - 16:40:01 10° SE 16:43:31 12° ESE 16:47:03 10° E daylight
03 Feb - 18:37:16 10° SSW 18:46:03 42° SE 18:55:09 10° ENE visible
03 Feb - 20:40:19 10° WSW 20:50:05 77° SSE 21:00:11 10° E visible
03 Feb - 22:44:56 10° W 22:54:55 82° S 23:05:07 10° ESE visible
04 Feb - 00:49:43 10° WNW 00:59:20 53° SSW 01:09:02 10° SE night (unlit)
04 Feb - 02:55:51 10° W 03:02:27 20° SW 03:09:04 10° S night (unlit)
04 Feb - 16:16:33 10° SE 16:18:32 11° ESE 16:20:30 10° ESE daylight
04 Feb - 18:12:21 10° SSW 18:20:57 39° SE 18:29:51 10° ENE visible
04 Feb - 20:15:10 10° WSW 20:24:52 75° SSE 20:34:56 10° E visible
04 Feb - 22:19:44 10° W 22:29:41 83° S 22:39:53 10° ESE visible
05 Feb - 00:24:30 10° WNW 00:34:10 55° SSW 00:43:57 10° SE visible
05 Feb - 02:30:21 10° W 02:37:23 22° SW 02:44:27 10° S night (unlit)
05 Feb - 17:47:26 10° SSW 17:55:51 37° SE 18:04:34 10° ENE visible
05 Feb - 19:50:02 10° WSW 19:59:40 73° SSE 20:09:41 10° E visible
05 Feb - 21:54:32 10° W 22:04:27 84° S 22:14:38 10° E visible
